Regional Weather Roundup
Issued by NWS

Home | Current Version | Previous Version | Graphics & Text | Print | Product List | Glossary On
Versions: 1 2 3 4 5 6 7 8 9 10 11 12 13 14 15 16 17 18 19 20 21 22 23 24 25 26 27 28 29 30 31 32 33 34 35 36 37 38 39 40 41 42 43 44 45 46 47 48 49 50
000
ASUS45 KPSR 272000
RWRAZ

PRELIMINARY ARIZONA REGIONAL HOURLY WEATHER ROUNDUP
NATIONAL WEATHER SERVICE PHOENIX AZ
100 PM MST TUE JAN 27 2015

NOTE: FAIR INDICATES FEW OR NO CLOUDS BELOW 12,000 FEET WITH NO
SIGNIFICANT WEATHER AND/OR OBSTRUCTIONS TO VISIBILITY.

AZZ001>003-036-272100-
NORTHWEST ARIZONA

CITY           SKY/WX    TMP DP  RH WIND       PRES   REMARKS
BULLHEAD CITY  CLOUDY    63  54  72 N7        30.24F
KINGMAN        PTSUNNY   59  46  62 VRB3      30.24F
$$

AZZ004>008-015-016-018-272100-
NORTH CENTRAL ARIZONA

CITY           SKY/WX    TMP DP  RH WIND       PRES   REMARKS
GRAND CANYON   CLOUDY    46  42  86 SW9       30.33F
PRESCOTT       PTSUNNY   58  34  40 S10       30.28F
FLAGSTAFF      PTSUNNY   47  36  65 SW10      30.34F
PAYSON         DRIZZLE   48  43  81 NW6       30.34F
$$

AZZ009>014-017-272100-
NORTHEAST ARIZONA

CITY           SKY/WX    TMP DP  RH WIND       PRES   REMARKS
WINSLOW        NOT AVBL
SAINT JOHNS    CLOUDY    58  38  47 N7        30.29F
WINDOW ROCK    MOSUNNY   57  30  35 W8G17     30.33F
SHOW LOW       PTSUNNY   55  36  47 SW13      30.34F
$$

AZZ023-272100-
GREATER PHOENIX AREA

CITY           SKY/WX    TMP DP  RH WIND       PRES   REMARKS
PHOENIX        MOSUNNY   69  47  45 E9        30.19F
BUCKEYE        SUNNY     68  48  49 E15       30.19F
GLENDALE       MOSUNNY   70  46  43 E5        30.21F
DEER VALLEY    MOSUNNY   69  46  43 E6        30.19F
SCOTTSDALE     MOSUNNY   67  49  52 CALM      30.21F
MESA-FALCON    PTSUNNY   66  48  52 NE9       30.20F
MESA-GATEWAY   MOSUNNY   64  48  55 CALM      30.22F
CHANDLER       PTSUNNY   66  48  52 VRB6      30.21F
$$

AZZ027-028-272100-
SOUTHWEST MARICOPA COUNTY AND PINAL COUNTY

CITY           SKY/WX    TMP DP  RH WIND       PRES   REMARKS
CASA GRANDE    CLOUDY    64  45  48 CALM      30.21F
GILA BEND      PTCLDY    69  52  54 N6        30.18F
$$

AZZ503-504-507>509-272100-
SOUTHEAST ARIZONA

CITY           SKY/WX    TMP DP  RH WIND       PRES   REMARKS
TUCSON         MOSUNNY   71  47  42 NW7       30.22F
DAVIS-MONTHAN  SUNNY     70  43  37 NW5       30.19F
NOGALES        SUNNY     69  46  43 W8        30.23F
SIERRA VISTA   PTSUNNY   66  41  39 E7        30.26F
DOUGLAS        SUNNY     68  41  37 SW5       30.24F
SAFFORD        SUNNY     67  32  27 S6        30.23F
$$

AZZ020-021-025-026-031-272100-
SOUTHWEST ARIZONA

CITY           SKY/WX    TMP DP  RH WIND       PRES   REMARKS
YUMA           CLOUDY    66  55  67 N8        30.19F
$$

CAZ031-033-041-043-047-048-061-272100-
SOUTHERN CALIFORNIA

CITY           SKY/WX    TMP DP  RH WIND       PRES   REMARKS
DOWNTOWN L.A.  SUNNY     72  48  42 CALM      30.16F
L.A. AIRPORT   MOSUNNY   68  51  54 CALM      30.17F
SAN DIEGO      PTSUNNY   72  47  40 W6        30.16F
BURBANK        SUNNY     66  48  52 S6        30.17F
ONTARIO        MOSUNNY   68  48  48 CALM      30.18F
RIVERSIDE      SUNNY     68  51  54 CALM      30.17F
PALM SPRINGS   MOSUNNY   67  52  58 CALM      30.22F
EL CENTRO NAS  PTSUNNY   64  54  69 NW6       30.21F
IMPERIAL       CLOUDY    63  54  72 CALM      30.20F
BLYTHE         SUNNY     65  54  67 NW5       30.21F
$$

NVZ020-UTZ003-272100-
SOUTHERN NEVADA-UTAH

CITY           SKY/WX    TMP DP  RH WIND       PRES   REMARKS
LAS VEGAS      PTSUNNY   59  48  67 CALM      30.20F
SALT LAKE CITY PTSUNNY   56  35  45 S21       30.16F
$$

NMZ009-TXZ055-272100-
NEW MEXICO-WEST TEXAS

CITY           SKY/WX    TMP DP  RH WIND       PRES   REMARKS
ALBUQUERQUE    PTSUNNY   55  28  35 CALM      30.31F
EL PASO        MOSUNNY   64  35  34 VRB3      30.26F
$$


........................KEY........................
SKY/WX - SKY CONDITION/WEATHER
TMP    - TEMPERATURE IN FAHRENHEIT
DP     - DEW POINT IN FAHRENHEIT
RH     - RELATIVE HUMIDITY IN PERCENT
WIND   - DIRECTION AND SPEED IN MILES PER HOUR (MPH)
VRB    - VARIABLE WIND DIRECTION
PRES   - MEAN SEA LEVEL PRESSURE IN INCHES OF MERCURY
         F - FALLING PRESSURE   R - RISING PRESSURE
         S - STEADY PRESSURE
VSB    - VISIBILITY IN MILES
HX     - HEAT INDEX IN FAHRENHEIT
WCI    - WIND CHILL INDEX IN FAHRENHEIT
TC     - TEMPERATURE IN CELSIUS WHICH IS ALSO KNOWN AS
         TEMPERATURE IN CENTIGRADE
AFB    - AIR FORCE BASE
         LUKE AFB IS LUKE AIR FORCE BASE
         DAVIS-MONTHAN IS DAVIS-MONTHAN AIR FORCE BASE
NAS    - NAVAL AIR STATION
         EL CENTRO NAS IS EL CENTRO NAVAL AIR STATION
N/A    - NOT AVAILABLE



USA.gov is the U.S. government's official web portal to all federal, state and local government web resources and services.